Year,Month,Day,Hour,Minute,Value (Times are PST for temperature in C)
2021,06,27,00,00,23.80
2021,06,27,00,01,23.80
2021,06,27,00,02,23.80
2021,06,27,00,03,23.80
2021,06,27,00,04,23.80
2021,06,27,00,05,23.80
2021,06,27,00,06,23.70
2021,06,27,00,07,23.70
2021,06,27,00,08,23.70
2021,06,27,00,09,23.70
2021,06,27,00,10,23.70
2021,06,27,00,11,23.70
2021,06,27,00,12,23.70
2021,06,27,00,13,23.60
2021,06,27,00,14,23.60
2021,06,27,00,15,23.60
2021,06,27,00,16,23.60
2021,06,27,00,17,23.60
2021,06,27,00,18,23.60
2021,06,27,00,19,23.60
2021,06,27,00,20,23.50
2021,06,27,00,21,23.50
2021,06,27,00,22,23.50
2021,06,27,00,23,23.50
2021,06,27,00,24,23.40
2021,06,27,00,25,23.40
2021,06,27,00,26,23.40
2021,06,27,00,27,23.40
2021,06,27,00,28,23.40
2021,06,27,00,29,23.40
2021,06,27,00,30,23.40
2021,06,27,00,31,23.30
2021,06,27,00,32,23.30
2021,06,27,00,33,23.30
2021,06,27,00,34,23.30
2021,06,27,00,35,23.30
2021,06,27,00,36,23.30
2021,06,27,00,37,23.30
2021,06,27,00,38,23.30
2021,06,27,00,39,23.30
2021,06,27,00,40,23.30
2021,06,27,00,41,23.20
2021,06,27,00,42,23.20
2021,06,27,00,43,23.20
2021,06,27,00,44,23.20
2021,06,27,00,45,23.20
2021,06,27,00,46,23.20
2021,06,27,00,47,23.20
2021,06,27,00,48,23.20
2021,06,27,00,49,23.10
2021,06,27,00,50,23.10
2021,06,27,00,51,23.10
2021,06,27,00,52,23.10
2021,06,27,00,53,23.10
2021,06,27,00,54,23.10
2021,06,27,00,55,23.10
2021,06,27,00,56,23.10
2021,06,27,00,57,23.10
2021,06,27,00,58,23.00
2021,06,27,00,59,23.00
2021,06,27,01,00,23.00
2021,06,27,01,01,23.00
2021,06,27,01,02,22.90
2021,06,27,01,03,22.90
2021,06,27,01,04,22.90
2021,06,27,01,05,22.90
2021,06,27,01,06,22.90
2021,06,27,01,07,22.90
2021,06,27,01,08,22.90
2021,06,27,01,09,22.90
2021,06,27,01,10,22.80
2021,06,27,01,11,22.80
2021,06,27,01,12,22.80
2021,06,27,01,13,22.80
2021,06,27,01,14,22.80
2021,06,27,01,15,22.80
2021,06,27,01,16,22.80
2021,06,27,01,17,22.80
2021,06,27,01,18,22.80
2021,06,27,01,19,22.80
2021,06,27,01,20,22.80
2021,06,27,01,21,22.80
2021,06,27,01,22,22.80
2021,06,27,01,23,22.70
2021,06,27,01,24,22.70
2021,06,27,01,25,22.70
2021,06,27,01,26,22.70
2021,06,27,01,27,22.70
2021,06,27,01,28,22.70
2021,06,27,01,29,22.70
2021,06,27,01,30,22.60
2021,06,27,01,31,22.60
2021,06,27,01,32,22.60
2021,06,27,01,33,22.60
2021,06,27,01,34,22.60
2021,06,27,01,35,22.60
2021,06,27,01,36,22.60
2021,06,27,01,37,22.60
2021,06,27,01,38,22.60
2021,06,27,01,39,22.60
2021,06,27,01,40,22.60
2021,06,27,01,41,22.50
2021,06,27,01,42,22.50
2021,06,27,01,43,22.50
2021,06,27,01,44,22.50
2021,06,27,01,45,22.50
2021,06,27,01,46,22.50
2021,06,27,01,47,22.50
2021,06,27,01,48,22.50
2021,06,27,01,49,22.40
2021,06,27,01,50,22.40
2021,06,27,01,51,22.40
2021,06,27,01,52,22.40
2021,06,27,01,53,22.40
2021,06,27,01,54,22.40
2021,06,27,01,55,22.40
2021,06,27,01,56,22.30
2021,06,27,01,57,22.30
2021,06,27,01,58,22.30
2021,06,27,01,59,22.30
2021,06,27,02,00,22.30
2021,06,27,02,01,22.30
2021,06,27,02,02,22.30
2021,06,27,02,03,22.30
2021,06,27,02,04,22.30
2021,06,27,02,05,22.20
2021,06,27,02,06,22.20
2021,06,27,02,07,22.20
2021,06,27,02,08,22.20
2021,06,27,02,09,22.20
2021,06,27,02,10,22.20
2021,06,27,02,11,22.20
2021,06,27,02,12,22.20
2021,06,27,02,13,22.10
2021,06,27,02,14,22.10
2021,06,27,02,15,22.10
2021,06,27,02,16,22.10
2021,06,27,02,17,22.10
2021,06,27,02,18,22.10
2021,06,27,02,19,22.10
2021,06,27,02,20,22.10
2021,06,27,02,21,22.10
2021,06,27,02,22,22.10
2021,06,27,02,23,22.00
2021,06,27,02,24,22.00
2021,06,27,02,25,22.00
2021,06,27,02,26,22.00
2021,06,27,02,27,22.00
2021,06,27,02,28,21.90
2021,06,27,02,29,21.90
2021,06,27,02,30,21.90
2021,06,27,02,31,21.90
2021,06,27,02,32,21.90
2021,06,27,02,33,21.90
2021,06,27,02,34,21.90
2021,06,27,02,35,21.80
2021,06,27,02,36,21.80
2021,06,27,02,37,21.80
2021,06,27,02,38,21.80
2021,06,27,02,39,21.80
2021,06,27,02,40,21.80
2021,06,27,02,41,21.80
2021,06,27,02,42,21.80
2021,06,27,02,43,21.80
2021,06,27,02,44,21.80
2021,06,27,02,45,21.80
2021,06,27,02,46,21.80
2021,06,27,02,47,21.80
2021,06,27,02,48,21.80
2021,06,27,02,49,21.80
2021,06,27,02,50,21.80
2021,06,27,02,51,21.80
2021,06,27,02,52,21.80
2021,06,27,02,53,21.80
2021,06,27,02,54,21.80
2021,06,27,02,55,21.80
2021,06,27,02,56,21.80
2021,06,27,02,57,21.80
2021,06,27,02,58,21.80
2021,06,27,02,59,21.80
2021,06,27,03,00,21.80
2021,06,27,03,01,21.80
2021,06,27,03,02,21.70
2021,06,27,03,03,21.70
2021,06,27,03,04,21.70
2021,06,27,03,05,21.70
2021,06,27,03,06,21.70
2021,06,27,03,07,21.70
2021,06,27,03,08,21.70
2021,06,27,03,09,21.70
2021,06,27,03,10,21.70
2021,06,27,03,11,21.70
2021,06,27,03,12,21.60
2021,06,27,03,13,21.60
2021,06,27,03,14,21.60
2021,06,27,03,15,21.60
2021,06,27,03,16,21.60
2021,06,27,03,17,21.60
2021,06,27,03,18,21.60
2021,06,27,03,19,21.60
2021,06,27,03,20,21.60
2021,06,27,03,21,21.50
2021,06,27,03,22,21.50
2021,06,27,03,23,21.50
2021,06,27,03,24,21.50
2021,06,27,03,25,21.40
2021,06,27,03,26,21.40
2021,06,27,03,27,21.40
2021,06,27,03,28,21.40
2021,06,27,03,29,21.40
2021,06,27,03,30,21.40
2021,06,27,03,31,21.40
2021,06,27,03,32,21.40
2021,06,27,03,33,21.40
2021,06,27,03,34,21.40
2021,06,27,03,35,21.40
2021,06,27,03,36,21.40
2021,06,27,03,37,21.40
2021,06,27,03,38,21.40
2021,06,27,03,39,21.40
2021,06,27,03,40,21.40
2021,06,27,03,41,21.40
2021,06,27,03,42,21.40
2021,06,27,03,43,21.40
2021,06,27,03,44,21.40
2021,06,27,03,45,21.40
2021,06,27,03,46,21.40
2021,06,27,03,47,21.30
2021,06,27,03,48,21.30
2021,06,27,03,49,21.30
2021,06,27,03,50,21.30
2021,06,27,03,51,21.30
2021,06,27,03,52,21.30
2021,06,27,03,53,21.30
2021,06,27,03,54,21.30
2021,06,27,03,55,21.30
2021,06,27,03,56,21.30
2021,06,27,03,57,21.20
2021,06,27,03,58,21.20
2021,06,27,03,59,21.20
2021,06,27,04,00,21.20
2021,06,27,04,01,21.20
2021,06,27,04,02,21.20
2021,06,27,04,03,21.20
2021,06,27,04,04,21.20
2021,06,27,04,05,21.20
2021,06,27,04,06,21.20
2021,06,27,04,07,21.20
2021,06,27,04,08,21.20
2021,06,27,04,09,21.20
2021,06,27,04,10,21.20
2021,06,27,04,11,21.20
2021,06,27,04,12,21.20
2021,06,27,04,13,21.20
2021,06,27,04,14,21.20
2021,06,27,04,15,21.20
2021,06,27,04,16,21.20
2021,06,27,04,17,21.20
2021,06,27,04,18,21.20
2021,06,27,04,19,21.20
2021,06,27,04,20,21.20
2021,06,27,04,21,21.20
2021,06,27,04,22,21.10
2021,06,27,04,23,21.10
2021,06,27,04,24,21.10
2021,06,27,04,25,21.10
2021,06,27,04,26,21.10
2021,06,27,04,27,21.10
2021,06,27,04,28,21.10
2021,06,27,04,29,21.10
2021,06,27,04,30,21.10
2021,06,27,04,31,21.00
2021,06,27,04,32,21.00
2021,06,27,04,33,21.00
2021,06,27,04,34,21.00
2021,06,27,04,35,21.00
2021,06,27,04,36,20.90
2021,06,27,04,37,20.90
2021,06,27,04,38,20.90
2021,06,27,04,39,20.90
2021,06,27,04,40,20.90
2021,06,27,04,41,20.90
2021,06,27,04,42,20.90
2021,06,27,04,43,20.90
2021,06,27,04,44,20.90
2021,06,27,04,45,20.80
2021,06,27,04,46,20.80
2021,06,27,04,47,20.80
2021,06,27,04,48,20.80
2021,06,27,04,49,20.80
2021,06,27,04,50,20.80
2021,06,27,04,51,20.80
2021,06,27,04,52,20.80
2021,06,27,04,53,20.80
2021,06,27,04,54,20.80
2021,06,27,04,55,20.70
2021,06,27,04,56,20.70
2021,06,27,04,57,20.70
2021,06,27,04,58,20.70
2021,06,27,04,59,20.70
2021,06,27,05,00,20.70
2021,06,27,05,01,20.70
2021,06,27,05,02,20.70
2021,06,27,05,03,20.70
2021,06,27,05,04,20.70
2021,06,27,05,05,20.70
2021,06,27,05,06,20.70
2021,06,27,05,07,20.70
2021,06,27,05,08,20.70
2021,06,27,05,09,20.70
2021,06,27,05,10,20.60
2021,06,27,05,11,20.60
2021,06,27,05,12,20.60
2021,06,27,05,13,20.60
2021,06,27,05,14,20.60
2021,06,27,05,15,20.60
2021,06,27,05,16,20.60
2021,06,27,05,17,20.60
2021,06,27,05,18,20.60
2021,06,27,05,19,20.60
2021,06,27,05,20,20.60
2021,06,27,05,21,20.60
2021,06,27,05,22,20.50
2021,06,27,05,23,20.50
2021,06,27,05,24,20.50
2021,06,27,05,25,20.50
2021,06,27,05,26,20.50
2021,06,27,05,27,20.50
2021,06,27,05,28,20.50
2021,06,27,05,29,20.50
2021,06,27,05,30,20.50
2021,06,27,05,31,20.50
2021,06,27,05,32,20.50
2021,06,27,05,33,20.50
2021,06,27,05,34,20.50
2021,06,27,05,35,20.40
2021,06,27,05,36,20.40
2021,06,27,05,37,20.40
2021,06,27,05,38,20.40
2021,06,27,05,39,20.40
2021,06,27,05,40,20.40
2021,06,27,05,41,20.40
2021,06,27,05,42,20.40
2021,06,27,05,43,20.40
2021,06,27,05,44,20.40
2021,06,27,05,45,20.40
2021,06,27,05,46,20.40
2021,06,27,05,47,20.30
2021,06,27,05,48,20.30
2021,06,27,05,49,20.30
2021,06,27,05,50,20.30
2021,06,27,05,51,20.30
2021,06,27,05,52,20.30
2021,06,27,05,53,20.30
2021,06,27,05,54,20.30
2021,06,27,05,55,20.30
2021,06,27,05,56,20.30
2021,06,27,05,57,20.30
2021,06,27,05,58,20.30
2021,06,27,05,59,20.30
2021,06,27,06,00,20.30
2021,06,27,06,01,20.30
2021,06,27,06,02,20.30
2021,06,27,06,03,20.20
2021,06,27,06,04,20.20
2021,06,27,06,05,20.20
2021,06,27,06,06,20.20
2021,06,27,06,07,20.20
2021,06,27,06,08,20.20
2021,06,27,06,09,20.20
2021,06,27,06,10,20.20
2021,06,27,06,11,20.20
2021,06,27,06,12,20.20
2021,06,27,06,13,20.20
2021,06,27,06,14,20.20
2021,06,27,06,15,20.20
2021,06,27,06,16,20.20
2021,06,27,06,17,20.20
2021,06,27,06,18,20.20
2021,06,27,06,19,20.20
2021,06,27,06,20,20.20
2021,06,27,06,21,20.20
2021,06,27,06,22,20.20
2021,06,27,06,23,20.20
2021,06,27,06,24,20.20
2021,06,27,06,25,20.20
2021,06,27,06,26,20.20
2021,06,27,06,27,20.20
2021,06,27,06,28,20.20
2021,06,27,06,29,20.20
2021,06,27,06,30,20.20
2021,06,27,06,31,20.20
2021,06,27,06,32,20.20
2021,06,27,06,33,20.20
2021,06,27,06,34,20.20
2021,06,27,06,35,20.20
2021,06,27,06,36,20.20
2021,06,27,06,37,20.20
2021,06,27,06,38,20.20
2021,06,27,06,39,20.20
2021,06,27,06,40,20.20
2021,06,27,06,41,20.20
2021,06,27,06,42,20.20
2021,06,27,06,43,20.20
2021,06,27,06,44,20.20
2021,06,27,06,45,20.20
2021,06,27,06,46,20.20
2021,06,27,06,47,20.20
2021,06,27,06,48,20.20
2021,06,27,06,49,20.20
2021,06,27,06,50,20.20
2021,06,27,06,51,20.20
2021,06,27,06,52,20.20
2021,06,27,06,53,20.20
2021,06,27,06,54,20.20
2021,06,27,06,55,20.20
2021,06,27,06,56,20.20
2021,06,27,06,57,20.20
2021,06,27,06,58,20.20
2021,06,27,06,59,20.20
2021,06,27,07,00,20.20
2021,06,27,07,01,20.20
2021,06,27,07,02,20.20
2021,06,27,07,03,20.20
2021,06,27,07,04,20.20
2021,06,27,07,05,20.20
2021,06,27,07,06,20.20
2021,06,27,07,07,20.20
2021,06,27,07,08,20.20
2021,06,27,07,09,20.20
2021,06,27,07,10,20.20
2021,06,27,07,11,20.20
2021,06,27,07,12,20.30
2021,06,27,07,13,20.30
2021,06,27,07,14,20.30
2021,06,27,07,15,20.30
2021,06,27,07,16,20.30
2021,06,27,07,17,20.30
2021,06,27,07,18,20.30
2021,06,27,07,19,20.30
2021,06,27,07,20,20.30
2021,06,27,07,21,20.30
2021,06,27,07,22,20.30
2021,06,27,07,23,20.40
2021,06,27,07,24,20.40
2021,06,27,07,25,20.40
2021,06,27,07,26,20.40
2021,06,27,07,27,20.40
2021,06,27,07,28,20.40
2021,06,27,07,29,20.40
2021,06,27,07,30,20.40
2021,06,27,07,31,20.50
2021,06,27,07,32,20.50
2021,06,27,07,33,20.50
2021,06,27,07,34,20.60
2021,06,27,07,35,20.60
2021,06,27,07,36,20.60
2021,06,27,07,37,20.60
2021,06,27,07,38,20.70
2021,06,27,07,39,20.70
2021,06,27,07,40,20.70
2021,06,27,07,41,20.70
2021,06,27,07,42,20.70
2021,06,27,07,43,20.80
2021,06,27,07,44,20.80
2021,06,27,07,45,20.80
2021,06,27,07,46,20.80
2021,06,27,07,47,20.90
2021,06,27,07,48,20.90
2021,06,27,07,49,20.90
2021,06,27,07,50,20.90
2021,06,27,07,51,21.00
2021,06,27,07,52,21.00
2021,06,27,07,53,21.10
2021,06,27,07,54,21.10
2021,06,27,07,55,21.10
2021,06,27,07,56,21.10
2021,06,27,07,57,21.20
2021,06,27,07,58,21.20
2021,06,27,07,59,21.20
2021,06,27,08,00,21.20
2021,06,27,08,01,21.30
2021,06,27,08,02,21.30
2021,06,27,08,03,21.40
2021,06,27,08,04,21.40
2021,06,27,08,05,21.50
2021,06,27,08,06,21.50
2021,06,27,08,07,21.60
2021,06,27,08,08,21.60
2021,06,27,08,09,21.70
2021,06,27,08,10,21.70
2021,06,27,08,11,21.70
2021,06,27,08,12,21.80
2021,06,27,08,13,21.80
2021,06,27,08,14,21.80
2021,06,27,08,15,21.90
2021,06,27,08,16,22.00
2021,06,27,08,17,22.10
2021,06,27,08,18,22.10
2021,06,27,08,19,22.20
2021,06,27,08,20,22.20
2021,06,27,08,21,22.20
2021,06,27,08,22,22.30
2021,06,27,08,23,22.30
2021,06,27,08,24,22.30
2021,06,27,08,25,22.40
2021,06,27,08,26,22.40
2021,06,27,08,27,22.40
2021,06,27,08,28,22.50
2021,06,27,08,29,22.50
2021,06,27,08,30,22.60
2021,06,27,08,31,22.60
2021,06,27,08,32,22.60
2021,06,27,08,33,22.60
2021,06,27,08,34,22.70
2021,06,27,08,35,22.70
2021,06,27,08,36,22.70
2021,06,27,08,37,22.70
2021,06,27,08,38,22.80
2021,06,27,08,39,22.80
2021,06,27,08,40,22.80
2021,06,27,08,41,22.90
2021,06,27,08,42,22.90
2021,06,27,08,43,22.90
2021,06,27,08,44,23.00
2021,06,27,08,45,23.00
2021,06,27,08,46,23.10
2021,06,27,08,47,23.10
2021,06,27,08,48,23.20
2021,06,27,08,49,23.20
2021,06,27,08,50,23.30
2021,06,27,08,51,23.30
2021,06,27,08,52,23.30
2021,06,27,08,53,23.40
2021,06,27,08,54,23.40
2021,06,27,08,55,23.50
2021,06,27,08,56,23.50
2021,06,27,08,57,23.60
2021,06,27,08,58,23.60
2021,06,27,08,59,23.70
2021,06,27,09,00,23.70
2021,06,27,09,01,23.80
2021,06,27,09,02,23.80
2021,06,27,09,03,23.80
2021,06,27,09,04,23.90
2021,06,27,09,05,23.90
2021,06,27,09,06,24.00
2021,06,27,09,07,24.00
2021,06,27,09,08,24.10
2021,06,27,09,09,24.10
2021,06,27,09,10,24.20
2021,06,27,09,11,24.20
2021,06,27,09,12,24.30
2021,06,27,09,13,24.40
2021,06,27,09,14,24.40
2021,06,27,09,15,24.50
2021,06,27,09,16,24.60
2021,06,27,09,17,24.70
2021,06,27,09,18,24.70
2021,06,27,09,19,24.80
2021,06,27,09,20,24.90
2021,06,27,09,21,24.90
2021,06,27,09,22,25.00
2021,06,27,09,23,25.10
2021,06,27,09,24,25.20
2021,06,27,09,25,25.20
2021,06,27,09,26,25.30
2021,06,27,09,27,25.40
2021,06,27,09,28,25.50
2021,06,27,09,29,25.60
2021,06,27,09,30,25.60
2021,06,27,09,31,25.70
2021,06,27,09,32,25.80
2021,06,27,09,33,25.90
2021,06,27,09,34,25.90
2021,06,27,09,35,26.00
2021,06,27,09,36,26.10
2021,06,27,09,37,26.20
2021,06,27,09,38,26.30
2021,06,27,09,39,26.40
2021,06,27,09,40,26.50
2021,06,27,09,41,26.60
2021,06,27,09,42,26.70
2021,06,27,09,43,26.80
2021,06,27,09,44,26.80
2021,06,27,09,45,26.90
2021,06,27,09,46,27.00
2021,06,27,09,47,27.10
2021,06,27,09,48,27.20
2021,06,27,09,49,27.30
2021,06,27,09,50,27.40
2021,06,27,09,51,27.50
2021,06,27,09,52,27.60
2021,06,27,09,53,27.60
2021,06,27,09,54,27.70
2021,06,27,09,55,27.80
2021,06,27,09,56,27.90
2021,06,27,09,57,27.90
2021,06,27,09,58,28.00
2021,06,27,09,59,28.10
2021,06,27,10,00,28.10
2021,06,27,10,01,28.20
2021,06,27,10,02,28.20
2021,06,27,10,03,28.30
2021,06,27,10,04,28.30
2021,06,27,10,05,28.40
2021,06,27,10,06,28.50
2021,06,27,10,07,28.50
2021,06,27,10,08,28.60
2021,06,27,10,09,28.70
2021,06,27,10,10,28.70
2021,06,27,10,11,28.80
2021,06,27,10,12,28.80
2021,06,27,10,13,28.90
2021,06,27,10,14,28.90
2021,06,27,10,15,29.00
2021,06,27,10,16,29.10
2021,06,27,10,17,29.10
2021,06,27,10,18,29.20
2021,06,27,10,19,29.30
2021,06,27,10,20,29.30
2021,06,27,10,21,29.40
2021,06,27,10,22,29.40
2021,06,27,10,23,29.50
2021,06,27,10,24,29.50
2021,06,27,10,25,29.60
2021,06,27,10,26,29.70
2021,06,27,10,27,29.70
2021,06,27,10,28,29.70
2021,06,27,10,29,29.80
2021,06,27,10,30,29.80
2021,06,27,10,31,29.80
2021,06,27,10,32,29.90
2021,06,27,10,33,29.90
2021,06,27,10,34,29.90
2021,06,27,10,35,29.90
2021,06,27,10,36,29.90
2021,06,27,10,37,29.90
2021,06,27,10,38,30.00
2021,06,27,10,39,30.10
2021,06,27,10,40,30.10
2021,06,27,10,41,30.10
2021,06,27,10,42,30.20
2021,06,27,10,43,30.20
2021,06,27,10,44,30.20
2021,06,27,10,45,30.30
2021,06,27,10,46,30.30
2021,06,27,10,47,30.40
2021,06,27,10,48,30.50
2021,06,27,10,49,30.60
2021,06,27,10,50,30.60
2021,06,27,10,51,30.60
2021,06,27,10,52,30.70
2021,06,27,10,53,30.80
2021,06,27,10,54,30.80
2021,06,27,10,55,30.90
2021,06,27,10,56,31.00
2021,06,27,10,57,31.10
2021,06,27,10,58,31.10
2021,06,27,10,59,31.20
2021,06,27,11,00,31.30
2021,06,27,11,01,31.40
2021,06,27,11,02,31.40
2021,06,27,11,03,31.50
2021,06,27,11,04,31.60
2021,06,27,11,05,31.60
2021,06,27,11,06,31.70
2021,06,27,11,07,31.70
2021,06,27,11,08,31.80
2021,06,27,11,09,31.80
2021,06,27,11,10,31.90
2021,06,27,11,11,31.90
2021,06,27,11,12,32.00
2021,06,27,11,13,32.00
2021,06,27,11,14,32.10
2021,06,27,11,15,32.10
2021,06,27,11,16,32.20
2021,06,27,11,17,32.20
2021,06,27,11,18,32.30
2021,06,27,11,19,32.30
2021,06,27,11,20,32.40
2021,06,27,11,21,32.40
2021,06,27,11,22,32.50
2021,06,27,11,23,32.50
2021,06,27,11,24,32.50
2021,06,27,11,25,32.50
2021,06,27,11,26,32.50
2021,06,27,11,27,32.50
2021,06,27,11,28,32.60
2021,06,27,11,29,32.60
2021,06,27,11,30,32.60
2021,06,27,11,31,32.60
2021,06,27,11,32,32.60
2021,06,27,11,33,32.60
2021,06,27,11,34,32.60
2021,06,27,11,35,32.60
2021,06,27,11,36,32.70
2021,06,27,11,37,32.70
2021,06,27,11,38,32.70
2021,06,27,11,39,32.80
2021,06,27,11,40,32.80
2021,06,27,11,41,32.90
2021,06,27,11,42,33.00
2021,06,27,11,43,33.00
2021,06,27,11,44,33.10
2021,06,27,11,45,33.10
2021,06,27,11,46,33.20
2021,06,27,11,47,33.30
2021,06,27,11,48,33.30
2021,06,27,11,49,33.30
2021,06,27,11,50,33.30
2021,06,27,11,51,33.40
2021,06,27,11,52,33.40
2021,06,27,11,53,33.40
2021,06,27,11,54,33.40
2021,06,27,11,55,33.40
2021,06,27,11,56,33.50
2021,06,27,11,57,33.50
2021,06,27,11,58,33.60
2021,06,27,11,59,33.60
2021,06,27,12,00,33.60
2021,06,27,12,01,33.60
2021,06,27,12,02,33.60
2021,06,27,12,03,33.60
2021,06,27,12,04,33.60
2021,06,27,12,05,33.60
2021,06,27,12,06,33.60
2021,06,27,12,07,33.70
2021,06,27,12,08,33.70
2021,06,27,12,09,33.80
2021,06,27,12,10,33.80
2021,06,27,12,11,33.90
2021,06,27,12,12,33.90
2021,06,27,12,13,33.90
2021,06,27,12,14,34.00
2021,06,27,12,15,34.00
2021,06,27,12,16,34.00
2021,06,27,12,17,34.10
2021,06,27,12,18,34.10
2021,06,27,12,19,34.10
2021,06,27,12,20,34.20
2021,06,27,12,21,34.20
2021,06,27,12,22,34.30
2021,06,27,12,23,34.30
2021,06,27,12,24,34.40
2021,06,27,12,25,34.40
2021,06,27,12,26,34.50
2021,06,27,12,27,34.50
2021,06,27,12,28,34.50
2021,06,27,12,29,34.50
2021,06,27,12,30,34.50
2021,06,27,12,31,34.60
2021,06,27,12,32,34.60
2021,06,27,12,33,34.60
2021,06,27,12,34,34.50
2021,06,27,12,35,34.50
2021,06,27,12,36,34.50
2021,06,27,12,37,34.60
2021,06,27,12,38,34.60
2021,06,27,12,39,34.60
2021,06,27,12,40,34.70
2021,06,27,12,41,34.70
2021,06,27,12,42,34.70
2021,06,27,12,43,34.80
2021,06,27,12,44,34.80
2021,06,27,12,45,34.80
2021,06,27,12,46,34.80
2021,06,27,12,47,34.70
2021,06,27,12,48,34.70
2021,06,27,12,49,34.60
2021,06,27,12,50,34.60
2021,06,27,12,51,34.50
2021,06,27,12,52,34.50
2021,06,27,12,53,34.40
2021,06,27,12,54,34.40
2021,06,27,12,55,34.30
2021,06,27,12,56,34.30
2021,06,27,12,57,34.30
2021,06,27,12,58,34.30
2021,06,27,12,59,34.30
2021,06,27,13,00,34.40
2021,06,27,13,01,34.40
2021,06,27,13,02,34.50
2021,06,27,13,03,34.60
2021,06,27,13,04,34.60
2021,06,27,13,05,34.70
2021,06,27,13,06,34.80
2021,06,27,13,07,34.80
2021,06,27,13,08,34.80
2021,06,27,13,09,34.80
2021,06,27,13,10,34.80
2021,06,27,13,11,34.80
2021,06,27,13,12,34.90
2021,06,27,13,13,34.90
2021,06,27,13,14,34.90
2021,06,27,13,15,35.00
2021,06,27,13,16,35.00
2021,06,27,13,17,35.00
2021,06,27,13,18,35.10
2021,06,27,13,19,35.10
2021,06,27,13,20,35.00
2021,06,27,13,21,35.00
2021,06,27,13,22,34.90
2021,06,27,13,23,34.90
2021,06,27,13,24,34.90
2021,06,27,13,25,34.90
2021,06,27,13,26,34.90
2021,06,27,13,27,34.90
2021,06,27,13,28,34.90
2021,06,27,13,29,35.00
2021,06,27,13,30,35.00
2021,06,27,13,31,35.00
2021,06,27,13,32,35.00
2021,06,27,13,33,35.00
2021,06,27,13,34,35.10
2021,06,27,13,35,35.10
2021,06,27,13,36,35.10
2021,06,27,13,37,35.10
2021,06,27,13,38,35.10
2021,06,27,13,39,35.10
2021,06,27,13,40,35.10
2021,06,27,13,41,35.20
2021,06,27,13,42,35.20
2021,06,27,13,43,35.20
2021,06,27,13,44,35.20
2021,06,27,13,45,35.20
2021,06,27,13,46,35.20
2021,06,27,13,47,35.20
2021,06,27,13,48,35.20
2021,06,27,13,49,35.20
2021,06,27,13,50,35.20
2021,06,27,13,51,35.20
2021,06,27,13,52,35.20
2021,06,27,13,53,35.20
2021,06,27,13,54,35.20
2021,06,27,13,55,35.20
2021,06,27,13,56,35.20
2021,06,27,13,57,35.30
2021,06,27,13,58,35.30
2021,06,27,13,59,35.30
2021,06,27,14,00,35.40
2021,06,27,14,01,35.50
2021,06,27,14,02,35.60
2021,06,27,14,03,35.60
2021,06,27,14,04,35.70
2021,06,27,14,05,35.80
2021,06,27,14,06,35.80
2021,06,27,14,07,35.90
2021,06,27,14,08,35.90
2021,06,27,14,09,35.90
2021,06,27,14,10,36.00
2021,06,27,14,11,36.00
2021,06,27,14,12,36.10
2021,06,27,14,13,36.10
2021,06,27,14,14,36.00
2021,06,27,14,15,36.00
2021,06,27,14,16,36.00
2021,06,27,14,17,36.00
2021,06,27,14,18,35.90
2021,06,27,14,19,35.90
2021,06,27,14,20,35.90
2021,06,27,14,21,35.90
2021,06,27,14,22,35.90
2021,06,27,14,23,35.90
2021,06,27,14,24,36.00
2021,06,27,14,25,36.00
2021,06,27,14,26,36.10
2021,06,27,14,27,36.10
2021,06,27,14,28,36.00
2021,06,27,14,29,36.00
2021,06,27,14,30,36.00
2021,06,27,14,31,36.10
2021,06,27,14,32,36.20
2021,06,27,14,33,36.20
2021,06,27,14,34,36.30
2021,06,27,14,35,36.40
2021,06,27,14,36,36.50
2021,06,27,14,37,36.50
2021,06,27,14,38,36.50
2021,06,27,14,39,36.50
2021,06,27,14,40,36.50
2021,06,27,14,41,36.50
2021,06,27,14,42,36.50
2021,06,27,14,43,36.60
2021,06,27,14,44,36.60
2021,06,27,14,45,36.60
2021,06,27,14,46,36.70
2021,06,27,14,47,36.70
2021,06,27,14,48,36.70
2021,06,27,14,49,36.80
2021,06,27,14,50,36.90
2021,06,27,14,51,37.00
2021,06,27,14,52,37.00
2021,06,27,14,53,37.00
2021,06,27,14,54,37.10
2021,06,27,14,55,37.10
2021,06,27,14,56,37.10
2021,06,27,14,57,37.10
2021,06,27,14,58,37.10
2021,06,27,14,59,37.10
2021,06,27,15,00,37.00
2021,06,27,15,01,36.90
2021,06,27,15,02,36.90
2021,06,27,15,03,36.90
2021,06,27,15,04,36.90
2021,06,27,15,05,37.00
2021,06,27,15,06,37.10
2021,06,27,15,07,37.10
2021,06,27,15,08,37.10
2021,06,27,15,09,37.00
2021,06,27,15,10,37.00
2021,06,27,15,11,36.90
2021,06,27,15,12,36.90
2021,06,27,15,13,36.80
2021,06,27,15,14,36.80
2021,06,27,15,15,36.90
2021,06,27,15,16,37.00
2021,06,27,15,17,37.00
2021,06,27,15,18,37.10
2021,06,27,15,19,37.20
2021,06,27,15,20,37.30
2021,06,27,15,21,37.40
2021,06,27,15,22,37.50
2021,06,27,15,23,37.50
2021,06,27,15,24,37.60
2021,06,27,15,25,37.60
2021,06,27,15,26,37.70
2021,06,27,15,27,37.80
2021,06,27,15,28,37.90
2021,06,27,15,29,37.90
2021,06,27,15,30,38.00
2021,06,27,15,31,38.10
2021,06,27,15,32,38.20
2021,06,27,15,33,38.20
2021,06,27,15,34,38.30
2021,06,27,15,35,38.30
2021,06,27,15,36,38.40
2021,06,27,15,37,38.50
2021,06,27,15,38,38.60
2021,06,27,15,39,38.70
2021,06,27,15,40,38.80
2021,06,27,15,41,38.80
2021,06,27,15,42,38.90
2021,06,27,15,43,39.00
2021,06,27,15,44,39.10
2021,06,27,15,45,39.10
2021,06,27,15,46,39.20
2021,06,27,15,47,39.30
2021,06,27,15,48,39.40
2021,06,27,15,49,39.40
2021,06,27,15,50,39.40
2021,06,27,15,51,39.50
2021,06,27,15,52,39.60
2021,06,27,15,53,39.60
2021,06,27,15,54,39.60
2021,06,27,15,55,39.60
2021,06,27,15,56,39.70
2021,06,27,15,57,39.70
2021,06,27,15,58,39.80
2021,06,27,15,59,39.90
2021,06,27,16,00,39.90
2021,06,27,16,01,40.00
2021,06,27,16,02,40.10
2021,06,27,16,03,40.10
2021,06,27,16,04,40.20
2021,06,27,16,05,40.20
2021,06,27,16,06,40.20
2021,06,27,16,07,40.20
2021,06,27,16,08,40.20
2021,06,27,16,09,40.20
2021,06,27,16,10,40.20
2021,06,27,16,11,40.20
2021,06,27,16,12,40.10
2021,06,27,16,13,40.10
2021,06,27,16,14,40.10
2021,06,27,16,15,40.10
2021,06,27,16,16,40.10
2021,06,27,16,17,40.10
2021,06,27,16,18,40.10
2021,06,27,16,19,40.10
2021,06,27,16,20,40.10
2021,06,27,16,21,40.10
2021,06,27,16,22,40.10
2021,06,27,16,23,40.10
2021,06,27,16,24,40.20
2021,06,27,16,25,40.20
2021,06,27,16,26,40.20
2021,06,27,16,27,40.20
2021,06,27,16,28,40.10
2021,06,27,16,29,40.10
2021,06,27,16,30,40.10
2021,06,27,16,31,40.10
2021,06,27,16,32,40.10
2021,06,27,16,33,40.00
2021,06,27,16,34,40.00
2021,06,27,16,35,39.90
2021,06,27,16,36,39.80
2021,06,27,16,37,39.70
2021,06,27,16,38,39.60
2021,06,27,16,39,39.60
2021,06,27,16,40,39.50
2021,06,27,16,41,39.50
2021,06,27,16,42,39.40
2021,06,27,16,43,39.40
2021,06,27,16,44,39.40
2021,06,27,16,45,39.30
2021,06,27,16,46,39.30
2021,06,27,16,47,39.30
2021,06,27,16,48,39.20
2021,06,27,16,49,39.20
2021,06,27,16,50,39.10
2021,06,27,16,51,39.10
2021,06,27,16,52,39.00
2021,06,27,16,53,39.00
2021,06,27,16,54,38.90
2021,06,27,16,55,38.90
2021,06,27,16,56,38.80
2021,06,27,16,57,38.80
2021,06,27,16,58,38.90
2021,06,27,16,59,38.90
2021,06,27,17,00,38.90
2021,06,27,17,01,39.00
2021,06,27,17,02,39.10
2021,06,27,17,03,39.10
2021,06,27,17,04,39.20
2021,06,27,17,05,39.30
2021,06,27,17,06,39.40
2021,06,27,17,07,39.50
2021,06,27,17,08,39.60
2021,06,27,17,09,39.70
2021,06,27,17,10,39.80
2021,06,27,17,11,39.90
2021,06,27,17,12,40.00
2021,06,27,17,13,40.10
2021,06,27,17,14,40.20
2021,06,27,17,15,40.30
2021,06,27,17,16,40.30
2021,06,27,17,17,40.30
2021,06,27,17,18,40.30
2021,06,27,17,19,40.30